Location: Newark
(59.4564°N, 26.6917°E)
Time: 07:38:05
(UTC+00:00)

SR - Pass Details

Date: 27 November 2019
Orbit: 573 x 882 km, 66.7° (Epoch: 07 December)

Event Time Altitude Azimuth Distance (km) Brightness Sun altitude
Rises 10:39:23 0° 183° (S) 3,269 ? 9.0°
Reaches altitude 10° 10:42:00 10° 173° (S) 2,391 ? 9.0°
Maximum altitude 10:46:41 29° 115° (ESE) 1,520 ? 8.9°
Drops below altitude 10° 10:51:35 10° 58° (ENE) 2,525 ? 8.8°
Sets 10:54:26 0° 48° (NE) 3,486 ? 8.7°
